Regional Weather Roundup
Issued by NWS Spokane, WA

Home | Current Version | Previous Version | Text Only | Print | Product List | Glossary On
Versions: 1 2 3 4 5 6 7 8 9 10 11 12 13 14 15 16 17 18 19 20 21 22 23 24 25 26 27 28 29 30 31 32 33 34 35 36 37 38 39 40 41 42 43 44 45 46 47 48 49 50
000
NZUS01 KOTX 290010
RWROTX
EASTERN WASHINGTON/NORTHERN IDAHO ROUNDUP
NATIONAL WEATHER SERVICE, SPOKANE WA
500 PM PDT THU JUL 28 2016

Note: "fair" indicated few or no clouds below 12,000 feet with no
significant weather and/or obstructions to visibility.

...NORTHEAST WASHINGTON AND NORTHERN IDAHO PANHANDLE...

CITY           SKY/WX    TMP DP  RH WIND       PRES   REMARKS
SPOKANE INTL   MOSUNNY   95  43  16 VRB3      30.02F HX  91
SPOKANE DOWNTO SUNNY     95  46  18 NW3       30.00F HX  91
COEUR D ALENE  SUNNY     91  50  24 NW7       29.99F
DEER PARK      SUNNY     92  45  19 W8        30.02F
SANDPOINT      SUNNY     86  54  32 E6        30.01F
BONNERS FERRY    N/A     90  50  25 SE3       30.02F

...SOUTHEAST WASHINGTON AND SOUTHERN IDAHO PANHANDLE...

CITY           SKY/WX    TMP DP  RH WIND       PRES   REMARKS
WALLA WALLA    SUNNY     99  49  18 VRB6      29.92F HX  96
PULLMAN/MOSCOW SUNNY     92  45  19 N5        30.04F
LEWISTON       SUNNY     99  43  14 W3        29.94F HX  95
LOWELL           N/A     95  57  27 CALM      29.93F HX  94

...COLUMBIA BASIN...

CITY           SKY/WX    TMP DP  RH WIND       PRES   REMARKS
EPHRATA        SUNNY     98  47  17 S10       29.94F HX  94
MOSES LAKE     SUNNY     98  44  15 S6        29.95F HX  94
TRI CITIES     SUNNY    102  49  16 N8        29.89F HX  99
HERMISTON      SUNNY    103  48  15 NE7       29.89F HX  99
PENDLETON      MOSUNNY   98  44  15 NW8       29.94F HX  94

...EAST SLOPES CASCADES...

CITY           SKY/WX    TMP DP  RH WIND       PRES   REMARKS
THE DALLES     SUNNY    102  48  16 N9        29.86F HX  98
YAKIMA         SUNNY    101  46  15 CALM      29.93F HX  97
ELLENSBURG     SUNNY     98  51  20 W8        29.98F HX  95
STAMPEDE PASS  SUNNY     77  50  38 VRB7      30.19F
WENATCHEE      SUNNY     98  50  19 E6        29.93F HX  95
OMAK           SUNNY     97  44  16 SW5       29.95F HX  93

...SOUTHERN BRITISH COLUMBIA...

CITY           SKY/WX    TMP DP  RH WIND       PRES   REMARKS
PENTICTON      MOSUNNY   93  57  29 N7        29.95F HX  92
CASTLEGAR      MOSUNNY   91  54  27 N7        29.97F
CRANBROOK      PTSUNNY   88  50  27 VRB10G17  30.04F

...WESTERN MONTANA...

CITY           SKY/WX    TMP DP  RH WIND       PRES   REMARKS
MISSOULA       SUNNY     91  45  20 N9        30.05F

...NEIGHBORING CITIES...

CITY           SKY/WX    TMP DP  RH WIND       PRES   REMARKS
SEATTLE        SUNNY     87  60  40 N10       30.06F
CALGARY        PTSUNNY   77  57  50 NE8       30.10R



USA.gov is the U.S. government's official web portal to all federal, state and local government web resources and services.